Home   Weather   Zárate   Past weeks

Flag for Argentina Past Weather in Zárate, Buenos Aires, Argentina — Yesterday and Last 2 Weeks

61 °F

Passing clouds.

Feels Like: 61 °F
Forecast: N/A
Wind: 9 mph from East

Location: Buenos Aires Airport

Current Time: Oct 21, 2016 at 7:05:42 PM

Latest Report: Oct 21, 2016 at 6:00 PM

Visibility: N/A

Pressure: 30.09 "Hg

Humidity: 63%

Dew Point: 48 °F

Location of ZárateLocation

Past Weather in Zárate — Graph


Zárate Temperature Yesterday

Maximum temperature yesterday: 59 °F (at 11:00 AM)
Minimum temperature yesterday: 54 °F (at 4:00 AM)
Average temperature yesterday: 56 °F

High & Low Weather Summary for the Past Weeks

High81 °F (Oct 16, 5:00 PM)94% (Oct 7, 6:00 AM)30.21 "Hg (Oct 7, 6:00 AM)
Low48 °F (Oct 8, 6:00 AM)35% (Oct 10, 3:00 PM)29.59 "Hg (Oct 15, 3:00 PM)
Average64 °F74%29.95 "Hg
* Reported Oct 6 6:00 PM — Oct 21 6:00 PM, Zárate, Weather by CustomWeather, © 2016

Note: Actual official high and low records may vary slightly from our data, if they occured in-between our weather recording intervals... More about our weather records


Zárate Weather History for the Previous 24 Hours

Scroll right to see more
Time TempWeatherWind HumidityBarometerVisibility
6:00 PM
Fri, Oct 21
61 °FPassing clouds.9 mph63%30.09 "HgN/A
5:00 PM63 °FPassing clouds.8 mph64%30.12 "HgN/A
4:00 PM63 °FPassing clouds.9 mph59%30.12 "HgN/A
3:00 PM63 °FScattered clouds.8 mph64%30.12 "HgN/A
2:00 PM63 °FScattered clouds.8 mph64%30.15 "HgN/A
1:00 PM63 °FScattered clouds.8 mph59%30.15 "HgN/A
12:00 PM59 °FScattered clouds.7 mph72%30.18 "HgN/A
11:00 AM61 °FScattered clouds.7 mph72%30.18 "HgN/A
10:00 AM59 °FScattered clouds.8 mph77%30.21 "HgN/A
9:00 AM59 °FScattered clouds.7 mph72%30.21 "HgN/A
8:00 AM57 °FPassing clouds.5 mph77%30.18 "HgN/A
7:00 AM55 °FPassing clouds.3 mph82%30.18 "HgN/A
6:00 AM54 °FClear.3 mph88%30.18 "Hg10 mi
5:00 AM54 °FClear.3 mph88%30.15 "Hg10 mi
4:00 AM55 °FClear.2 mph82%30.15 "Hg10 mi
3:00 AM55 °FPassing clouds.3 mph82%30.15 "HgN/A
2:00 AM55 °FLight rain. Overcast.7 mph82%30.18 "Hg6 mi
1:00 AM55 °FPassing clouds.6 mph82%30.15 "HgN/A
12:00 AM57 °FClear.6 mph72%30.15 "Hg10 mi
11:00 PM
Thu, Oct 20
57 °FCool.6 mph77%30.15 "HgN/A
10:00 PM57 °FOvercast.7 mph77%30.15 "HgN/A
9:00 PM57 °FOvercast.5 mph77%30.12 "HgN/A
8:00 PM57 °FMostly cloudy.6 mph82%30.12 "HgN/A
7:00 PM57 °FMostly cloudy.2 mph88%30.12 "HgN/A
Weather by CustomWeather, © 2016

See weather overviewHow to use our weather pages